Date String (YYYY-MM-DD hh:mm:ss) UTC,Instrument flags,absolute air pressure of the measurement (hPa),sample flow rate (lpm),inlet stack bypass flow (lpm),air temperature of the measurement (°C),ambient temperature measured by the external sensor (°C),aerosol sample conditioner tube jacket temperature (°C),OPC LED temperature (°C),internal box temperature (°C),relative humidity of the measurement (%),span deviation,mass concentration of particles derived from Lorenz-Mie calculation of OPC scattering (μg/m³),mass concentration of particles derived from Lorenz-Mie calculation of OPC scattering (μg/m³),mass concentration of particles derived from Lorenz-Mie calculation of OPC scattering (μg/m³)
DateTimeUTC,F1_M11,P_M11,Q1_M11,Q2_M11,T1_M11,T2_M11,T3_M11,T4_M11,T5_M11,U1_M11,ZSPAN_M11,X0_M11,X2_M11,X1_M11
2024-02-06 09:00:00,SystemResetWarning,0826.4,5.00,000.00,019.7,019.0,000.0,028.2,021.4,17.9,0000.0,0002.30,0001.74,0001.59
2024-02-06 09:01:00,SystemResetWarning,0826.4,5.00,000.00,019.7,019.0,000.0,028.2,021.4,17.9,0000.0,0002.26,0001.73,0001.59
2024-02-06 09:02:00,SystemResetWarning,0826.4,5.01,000.00,019.7,019.0,000.0,028.1,021.4,17.9,0000.0,0002.25,0001.72,0001.58
2024-02-06 09:03:00,SystemResetWarning,0826.4,5.00,000.00,019.7,019.0,000.0,028.1,021.4,17.9,0000.0,0002.27,0001.73,0001.59
2024-02-06 09:04:00,SystemResetWarning,0826.3,5.01,000.00,019.7,019.0,000.0,028.1,021.4,17.9,0000.0,0002.25,0001.72,0001.59
2024-02-06 09:05:00,SystemResetWarning,0826.3,4.99,000.00,019.7,019.0,000.0,028.1,021.4,18.0,0000.0,0002.21,0001.72,0001.61
2024-02-06 09:06:00,SystemResetWarning,0826.3,5.00,000.00,019.7,019.0,000.0,028.1,021.4,17.9,0000.0,0002.27,0001.77,0001.64
2024-02-06 09:07:00,SystemResetWarning,0826.3,4.99,000.00,019.7,019.0,000.0,028.1,021.4,18.0,0000.0,0002.19,0001.79,0001.67
2024-02-06 09:08:00,SystemResetWarning,0826.2,5.00,000.00,019.7,019.0,000.0,028.1,021.4,18.0,0000.0,0002.17,0001.80,0001.69
2024-02-06 09:09:00,SystemResetWarning,0826.3,5.00,000.00,019.7,019.0,000.0,028.1,021.4,18.1,0000.0,0002.35,0001.87,0001.71
2024-02-06 09:10:00,SystemResetWarning,0826.4,4.99,000.00,019.7,019.0,000.0,028.1,021.4,18.1,0000.0,0002.38,0001.90,0001.73
2024-02-06 09:11:00,SystemResetWarning,0826.4,5.00,000.00,019.7,019.0,000.0,028.1,021.4,18.1,0000.0,0002.40,0001.92,0001.74
2024-02-06 09:12:00,SystemResetWarning,0826.4,5.01,000.00,019.7,019.0,000.0,028.1,021.4,18.1,0000.0,0002.51,0001.96,0001.76
2024-02-06 09:13:00,SystemResetWarning,0826.4,5.00,000.00,019.7,018.9,000.0,028.1,021.4,18.1,0000.0,0002.53,0001.99,0001.79
2024-02-06 09:14:00,SystemResetWarning,0826.4,4.99,000.00,019.7,018.9,000.0,028.1,021.4,18.2,0000.0,0002.46,0001.97,0001.79
2024-02-06 09:15:00,SystemResetWarning,0826.4,5.00,000.00,019.7,018.9,000.0,028.1,021.4,18.2,0000.0,0002.50,0001.98,0001.80
2024-02-06 09:16:00,SystemResetWarning,0826.4,5.00,000.00,019.7,018.9,000.0,028.1,021.4,18.2,0000.0,0002.58,0002.00,0001.80
2024-02-06 09:17:00,SystemResetWarning,0826.4,4.99,000.00,019.7,018.9,000.0,028.1,021.4,18.2,0000.0,0002.57,0002.00,0001.80
2024-02-06 09:18:00,SystemResetWarning,0826.4,5.00,000.00,019.7,018.9,000.0,028.1,021.3,18.2,0000.0,0002.68,0002.04,0001.80
2024-02-06 09:19:00,SystemResetWarning,0826.4,4.99,000.00,019.6,018.9,000.0,028.0,021.3,18.2,0000.0,0002.82,0002.06,0001.81
2024-02-06 09:20:00,SystemResetWarning,0826.4,5.00,000.00,019.6,018.9,000.0,028.0,021.3,18.2,0000.0,0002.81,0002.03,0001.81
2024-02-06 09:21:00,SystemResetWarning,0826.4,5.01,000.00,019.6,018.9,000.0,028.0,021.3,18.2,0000.0,0002.79,0002.03,0001.82
2024-02-06 09:22:00,SystemResetWarning,0826.4,5.01,000.00,019.6,018.9,000.0,028.0,021.3,18.2,0000.0,0002.81,0002.04,0001.82
2024-02-06 09:23:00,SystemResetWarning,0826.5,5.00,000.00,019.6,018.9,000.0,028.0,021.3,18.1,0000.0,0002.82,0002.05,0001.83
2024-02-06 09:24:00,SystemResetWarning,0826.6,5.00,000.00,019.6,018.9,000.0,028.0,021.3,18.1,0000.0,0002.90,0002.09,0001.83
2024-02-06 09:25:00,SystemResetWarning,0826.6,5.00,000.00,019.6,018.9,000.0,028.0,021.3,18.1,0000.0,0002.96,0002.11,0001.84
2024-02-06 09:26:00,SystemResetWarning,0826.6,5.00,000.00,019.6,018.9,000.0,028.0,021.3,18.1,0000.0,0002.98,0002.11,0001.84
2024-02-06 09:27:00,SystemResetWarning,0826.6,5.00,000.00,019.6,018.8,000.0,028.0,021.3,18.0,0000.0,0002.96,0002.10,0001.83
2024-02-06 09:28:00,SystemResetWarning,0826.6,5.02,000.00,019.6,018.9,000.0,028.0,021.3,18.0,0000.0,0003.04,0002.11,0001.84
2024-02-06 09:29:00,SystemResetWarning,0826.6,5.00,000.00,019.6,018.8,000.0,028.0,021.3,17.9,0000.0,0003.07,0002.09,0001.85
2024-02-06 09:30:00,SystemResetWarning,0826.5,5.00,000.00,019.6,018.8,000.0,028.0,021.3,17.8,0000.0,0003.13,0002.12,0001.85
2024-02-06 09:31:00,SystemResetWarning,0826.4,4.99,000.00,019.6,018.8,000.0,028.0,021.3,17.8,0000.0,0003.18,0002.14,0001.85
2024-02-06 09:32:00,SystemResetWarning,0826.4,5.00,000.00,019.6,018.8,000.0,028.0,021.2,17.9,0000.0,0003.11,0002.11,0001.84
2024-02-06 09:33:00,SystemResetWarning,0826.4,4.99,000.00,019.6,018.9,000.0,028.0,021.3,17.9,0000.0,0003.23,0002.14,0001.84
2024-02-06 09:34:00,SystemResetWarning,0826.4,5.00,000.00,019.6,018.9,000.0,028.0,021.3,17.9,0000.0,0003.67,0002.14,0001.84
2024-02-06 09:35:00,SystemResetWarning,0826.4,5.01,000.00,019.6,018.9,000.0,028.0,021.2,17.9,0000.0,0004.34,0002.14,0001.83
2024-02-06 09:36:00,SystemResetWarning,0826.4,5.01,000.00,019.6,018.8,000.0,028.0,021.2,17.9,0000.0,0004.33,0002.14,0001.85
2024-02-06 09:37:00,SystemResetWarning,0826.4,5.00,000.00,019.6,018.8,000.0,028.0,021.2,18.1,0000.0,0004.35,0002.14,0001.84
2024-02-06 09:38:00,SystemResetWarning,0826.4,5.00,000.00,019.5,018.8,000.0,027.9,021.2,18.1,0000.0,0004.24,0002.10,0001.83
2024-02-06 09:39:00,SystemResetWarning,0826.3,5.00,000.00,019.5,018.8,000.0,028.0,021.2,18.1,0000.0,0004.50,0002.10,0001.82
2024-02-06 09:40:00,SystemResetWarning,0826.3,4.99,000.00,019.5,018.8,000.0,028.0,021.2,18.1,0000.0,0004.38,0002.11,0001.82
2024-02-06 09:41:00,SystemResetWarning,0826.2,5.00,000.00,019.5,018.8,000.0,027.9,021.2,18.1,0000.0,0004.25,0002.07,0001.82
2024-02-06 09:42:00,SystemResetWarning,0826.2,5.00,000.00,019.5,018.9,000.0,027.9,021.2,18.1,0000.0,0004.04,0002.05,0001.83
2024-02-06 09:43:00,SystemResetWarning,0826.2,5.00,000.00,019.5,018.8,000.0,027.9,021.2,18.0,0000.0,0004.08,0002.08,0001.85
2024-02-06 09:44:00,SystemResetWarning,0826.2,5.00,000.00,019.5,018.8,000.0,027.9,021.2,17.9,0000.0,0004.02,0002.07,0001.86
2024-02-06 09:45:00,SystemResetWarning,0826.1,5.02,000.00,019.5,018.8,000.0,027.9,021.2,17.8,0000.0,0003.83,0002.10,0001.88
2024-02-06 09:46:00,SystemResetWarning,0826.0,5.00,000.00,019.5,018.8,000.0,027.9,021.2,17.9,0000.0,0003.01,0002.11,0001.89
2024-02-06 09:47:00,SystemResetWarning,0825.9,5.00,000.00,019.5,018.8,000.0,027.9,021.2,18.0,0000.0,0002.98,0002.10,0001.89
2024-02-06 09:48:00,SystemResetWarning,0825.9,5.00,000.00,019.5,018.8,000.0,027.9,021.2,18.1,0000.0,0002.95,0002.09,0001.87
2024-02-06 09:49:00,SystemResetWarning,0825.9,4.99,000.00,019.5,018.9,000.0,027.9,021.2,18.2,0000.0,0002.96,0002.08,0001.85
2024-02-06 09:50:00,SystemResetWarning,0825.9,5.00,000.00,019.5,018.9,000.0,027.9,021.2,18.2,0000.0,0003.15,0002.11,0001.85
2024-02-06 09:51:00,SystemResetWarning,0825.9,4.99,000.00,019.5,018.9,000.0,027.9,021.2,18.1,0000.0,0003.60,0002.11,0001.84
2024-02-06 09:52:00,SystemResetWarning,0825.9,5.00,000.00,019.5,018.9,000.0,027.9,021.2,18.1,0000.0,0003.72,0002.13,0001.85
2024-02-06 09:53:00,SystemResetWarning,0825.9,5.01,000.00,019.5,018.9,000.0,027.9,021.2,18.1,0000.0,0003.73,0002.13,0001.86
2024-02-06 09:54:00,SystemResetWarning,0825.9,5.00,000.00,019.5,018.8,000.0,027.9,021.3,18.1,0000.0,0003.73,0002.12,0001.86
2024-02-06 09:55:00,SystemResetWarning,0825.8,4.99,000.00,019.5,018.8,000.0,027.9,021.2,18.1,0000.0,0003.76,0002.13,0001.85
2024-02-06 09:56:00,SystemResetWarning,0825.9,4.99,000.00,019.5,018.8,000.0,027.9,021.2,18.1,0000.0,0003.74,0002.12,0001.85
2024-02-06 09:57:00,SystemResetWarning,0825.9,4.99,000.00,019.5,018.8,000.0,027.9,021.2,18.1,0000.0,0004.89,0002.11,0001.86
2024-02-06 09:58:00,SystemResetWarning,0825.8,5.01,000.00,019.5,018.8,000.0,027.9,021.2,18.1,0000.0,0005.00,0002.13,0001.86
2024-02-06 09:59:00,SystemResetWarning,0825.8,5.01,000.00,019.5,018.8,000.0,027.9,021.2,18.1,0000.0,0005.02,0002.15,0001.88
